Year,Month,Day,Hour,Minute,Value (Times are PST for temperature in C)
2010,04,08,00,00,6.80
2010,04,08,00,01,6.80
2010,04,08,00,02,6.80
2010,04,08,00,03,6.80
2010,04,08,00,04,6.80
2010,04,08,00,05,6.80
2010,04,08,00,06,6.80
2010,04,08,00,07,6.80
2010,04,08,00,08,6.80
2010,04,08,00,09,6.80
2010,04,08,00,10,6.80
2010,04,08,00,11,6.80
2010,04,08,00,12,6.80
2010,04,08,00,13,6.80
2010,04,08,00,14,6.80
2010,04,08,00,15,6.80
2010,04,08,00,16,6.80
2010,04,08,00,17,6.80
2010,04,08,00,18,6.80
2010,04,08,00,19,6.80
2010,04,08,00,20,6.80
2010,04,08,00,21,6.80
2010,04,08,00,22,6.80
2010,04,08,00,23,6.70
2010,04,08,00,24,6.70
2010,04,08,00,25,6.70
2010,04,08,00,26,6.70
2010,04,08,00,27,6.70
2010,04,08,00,28,6.70
2010,04,08,00,29,6.40
2010,04,08,00,30,6.00
2010,04,08,00,31,5.50
2010,04,08,00,32,5.10
2010,04,08,00,33,4.60
2010,04,08,00,34,4.30
2010,04,08,00,35,4.10
2010,04,08,00,36,3.80
2010,04,08,00,37,3.70
2010,04,08,00,38,3.60
2010,04,08,00,39,3.50
2010,04,08,00,40,3.40
2010,04,08,00,41,3.40
2010,04,08,00,42,3.30
2010,04,08,00,43,3.30
2010,04,08,00,44,3.30
2010,04,08,00,45,3.30
2010,04,08,00,46,3.30
2010,04,08,00,47,3.30
2010,04,08,00,48,3.30
2010,04,08,00,49,3.30
2010,04,08,00,50,3.20
2010,04,08,00,51,3.20
2010,04,08,00,52,3.20
2010,04,08,00,53,3.20
2010,04,08,00,54,3.20
2010,04,08,00,55,3.20
2010,04,08,00,56,3.10
2010,04,08,00,57,3.10
2010,04,08,00,58,3.10
2010,04,08,00,59,3.10
2010,04,08,01,00,3.10
2010,04,08,01,01,3.10
2010,04,08,01,02,3.10
2010,04,08,01,03,3.10
2010,04,08,01,04,3.10
2010,04,08,01,05,3.00
2010,04,08,01,06,3.00
2010,04,08,01,07,3.00
2010,04,08,01,08,3.00
2010,04,08,01,09,3.00
2010,04,08,01,10,3.00
2010,04,08,01,11,3.00
2010,04,08,01,12,3.00
2010,04,08,01,13,3.00
2010,04,08,01,14,3.00
2010,04,08,01,15,3.00
2010,04,08,01,16,3.00
2010,04,08,01,17,3.00
2010,04,08,01,18,3.00
2010,04,08,01,19,3.00
2010,04,08,01,20,3.10
2010,04,08,01,21,3.10
2010,04,08,01,22,3.10
2010,04,08,01,23,3.10
2010,04,08,01,24,3.10
2010,04,08,01,25,3.10
2010,04,08,01,26,3.10
2010,04,08,01,27,3.10
2010,04,08,01,28,3.10
2010,04,08,01,29,3.00
2010,04,08,01,30,3.00
2010,04,08,01,31,2.90
2010,04,08,01,32,2.90
2010,04,08,01,33,2.90
2010,04,08,01,34,2.90
2010,04,08,01,35,2.80
2010,04,08,01,36,2.80
2010,04,08,01,37,2.80
2010,04,08,01,38,2.80
2010,04,08,01,39,2.70
2010,04,08,01,40,2.70
2010,04,08,01,41,2.70
2010,04,08,01,42,2.70
2010,04,08,01,43,2.70
2010,04,08,01,44,2.70
2010,04,08,01,45,2.70
2010,04,08,01,46,2.70
2010,04,08,01,47,2.70
2010,04,08,01,48,2.70
2010,04,08,01,49,2.70
2010,04,08,01,50,2.70
2010,04,08,01,51,2.70
2010,04,08,01,52,2.70
2010,04,08,01,53,2.70
2010,04,08,01,54,2.70
2010,04,08,01,55,2.70
2010,04,08,01,56,2.70
2010,04,08,01,57,2.80
2010,04,08,01,58,2.80
2010,04,08,01,59,2.80
2010,04,08,02,00,2.80
2010,04,08,02,01,2.80
2010,04,08,02,02,2.80
2010,04,08,02,03,2.80
2010,04,08,02,04,2.80
2010,04,08,02,05,2.80
2010,04,08,02,06,2.80
2010,04,08,02,07,2.80
2010,04,08,02,08,2.80
2010,04,08,02,09,2.80
2010,04,08,02,10,2.80
2010,04,08,02,11,2.80
2010,04,08,02,12,2.80
2010,04,08,02,13,2.90
2010,04,08,02,14,2.90
2010,04,08,02,15,2.90
2010,04,08,02,16,2.90
2010,04,08,02,17,2.90
2010,04,08,02,18,2.90
2010,04,08,02,19,2.90
2010,04,08,02,20,2.90
2010,04,08,02,21,2.90
2010,04,08,02,22,2.90
2010,04,08,02,23,2.90
2010,04,08,02,24,3.00
2010,04,08,02,25,3.00
2010,04,08,02,26,3.00
2010,04,08,02,27,3.00
2010,04,08,02,28,3.10
2010,04,08,02,29,3.10
2010,04,08,02,30,3.10
2010,04,08,02,31,3.10
2010,04,08,02,32,3.20
2010,04,08,02,33,3.20
2010,04,08,02,34,3.20
2010,04,08,02,35,3.30
2010,04,08,02,36,3.30
2010,04,08,02,37,3.30
2010,04,08,02,38,3.40
2010,04,08,02,39,3.40
2010,04,08,02,40,3.40
2010,04,08,02,41,3.50
2010,04,08,02,42,3.50
2010,04,08,02,43,3.50
2010,04,08,02,44,3.50
2010,04,08,02,45,3.60
2010,04,08,02,46,3.60
2010,04,08,02,47,3.60
2010,04,08,02,48,3.60
2010,04,08,02,49,3.70
2010,04,08,02,50,3.70
2010,04,08,02,51,3.60
2010,04,08,02,52,3.60
2010,04,08,02,53,3.60
2010,04,08,02,54,3.60
2010,04,08,02,55,3.50
2010,04,08,02,56,3.50
2010,04,08,02,57,3.50
2010,04,08,02,58,3.40
2010,04,08,02,59,3.40
2010,04,08,03,00,3.40
2010,04,08,03,01,3.40
2010,04,08,03,02,3.40
2010,04,08,03,06,3.60
2010,04,08,03,07,3.60
2010,04,08,03,08,3.60
2010,04,08,03,09,3.60
2010,04,08,03,10,3.60
2010,04,08,03,11,3.70
2010,04,08,03,12,3.70
2010,04,08,03,13,3.80
2010,04,08,03,14,3.80
2010,04,08,03,15,3.90
2010,04,08,03,16,3.90
2010,04,08,03,17,4.00
2010,04,08,03,18,4.10
2010,04,08,03,19,4.10
2010,04,08,03,20,4.10
2010,04,08,03,21,4.20
2010,04,08,03,22,4.20
2010,04,08,03,23,4.20
2010,04,08,03,24,4.20
2010,04,08,03,25,4.20
2010,04,08,03,26,4.20
2010,04,08,03,27,4.20
2010,04,08,03,28,4.20
2010,04,08,03,29,4.20
2010,04,08,03,30,4.10
2010,04,08,03,31,4.10
2010,04,08,03,32,4.10
2010,04,08,03,33,4.00
2010,04,08,03,34,4.00
2010,04,08,03,35,3.90
2010,04,08,03,36,3.90
2010,04,08,03,37,3.90
2010,04,08,03,38,3.90
2010,04,08,03,39,3.90
2010,04,08,03,40,4.00
2010,04,08,03,41,4.00
2010,04,08,03,42,4.00
2010,04,08,03,43,4.10
2010,04,08,03,44,4.10
2010,04,08,03,45,4.10
2010,04,08,03,46,4.20
2010,04,08,03,47,4.20
2010,04,08,03,48,4.30
2010,04,08,03,49,4.30
2010,04,08,03,50,4.30
2010,04,08,03,51,4.30
2010,04,08,03,52,4.30
2010,04,08,03,53,4.30
2010,04,08,03,54,4.30
2010,04,08,03,55,4.30
2010,04,08,03,56,4.20
2010,04,08,03,57,4.20
2010,04,08,03,58,4.20
2010,04,08,03,59,4.20
2010,04,08,04,00,4.10
2010,04,08,04,01,4.10
2010,04,08,04,02,4.10
2010,04,08,04,03,4.00
2010,04,08,04,04,4.00
2010,04,08,04,05,3.90
2010,04,08,04,06,3.90
2010,04,08,04,07,3.90
2010,04,08,04,08,3.80
2010,04,08,04,09,3.80
2010,04,08,04,10,3.80
2010,04,08,04,11,3.70
2010,04,08,04,12,3.70
2010,04,08,04,13,3.70
2010,04,08,04,14,3.70
2010,04,08,04,15,3.60
2010,04,08,04,16,3.60
2010,04,08,04,17,3.60
2010,04,08,04,18,3.60
2010,04,08,04,19,3.60
2010,04,08,04,20,3.50
2010,04,08,04,21,3.50
2010,04,08,04,22,3.50
2010,04,08,04,23,3.50
2010,04,08,04,24,3.50
2010,04,08,04,25,3.40
2010,04,08,04,26,3.40
2010,04,08,04,27,3.40
2010,04,08,04,28,3.40
2010,04,08,04,29,3.40
2010,04,08,04,30,3.40
2010,04,08,04,31,3.30
2010,04,08,04,32,3.30
2010,04,08,04,33,3.30
2010,04,08,04,34,3.30
2010,04,08,04,35,3.30
2010,04,08,04,36,3.30
2010,04,08,04,37,3.30
2010,04,08,04,38,3.30
2010,04,08,04,39,3.30
2010,04,08,04,40,3.30
2010,04,08,04,41,3.30
2010,04,08,04,42,3.30
2010,04,08,04,43,3.20
2010,04,08,04,44,3.20
2010,04,08,04,45,3.20
2010,04,08,04,46,3.20
2010,04,08,04,47,3.10
2010,04,08,04,48,3.10
2010,04,08,04,49,3.10
2010,04,08,04,50,3.10
2010,04,08,04,51,3.10
2010,04,08,04,52,3.10
2010,04,08,04,53,3.10
2010,04,08,04,54,3.10
2010,04,08,04,55,3.10
2010,04,08,04,56,3.10
2010,04,08,04,57,3.10
2010,04,08,04,58,3.00
2010,04,08,04,59,3.00
2010,04,08,05,00,2.90
2010,04,08,05,01,2.90
2010,04,08,05,02,2.90
2010,04,08,05,03,2.80
2010,04,08,05,04,2.70
2010,04,08,05,05,2.60
2010,04,08,05,06,2.60
2010,04,08,05,07,2.50
2010,04,08,05,08,2.50
2010,04,08,05,09,2.40
2010,04,08,05,10,2.30
2010,04,08,05,11,2.30
2010,04,08,05,12,2.30
2010,04,08,05,13,2.20
2010,04,08,05,14,2.20
2010,04,08,05,15,2.10
2010,04,08,05,16,2.10
2010,04,08,05,17,2.10
2010,04,08,05,18,2.10
2010,04,08,05,19,2.00
2010,04,08,05,20,2.00
2010,04,08,05,21,2.00
2010,04,08,05,22,1.90
2010,04,08,05,23,1.90
2010,04,08,05,24,1.90
2010,04,08,05,25,1.90
2010,04,08,05,26,1.80
2010,04,08,05,27,1.80
2010,04,08,05,28,1.80
2010,04,08,05,29,1.80
2010,04,08,05,30,1.80
2010,04,08,05,31,1.80
2010,04,08,05,32,1.90
2010,04,08,05,33,2.00
2010,04,08,05,34,2.10
2010,04,08,05,35,2.20
2010,04,08,05,36,2.30
2010,04,08,05,37,2.30
2010,04,08,05,38,2.50
2010,04,08,05,39,2.50
2010,04,08,05,40,2.60
2010,04,08,05,41,2.60
2010,04,08,05,42,2.70
2010,04,08,05,43,2.70
2010,04,08,05,44,2.80
2010,04,08,05,45,2.90
2010,04,08,05,46,3.00
2010,04,08,05,47,3.10
2010,04,08,05,48,3.10
2010,04,08,05,49,3.20
2010,04,08,05,50,3.20
2010,04,08,05,51,3.20
2010,04,08,05,52,3.20
2010,04,08,05,53,3.30
2010,04,08,05,54,3.30
2010,04,08,05,55,3.40
2010,04,08,05,56,3.40
2010,04,08,05,57,3.60
2010,04,08,05,58,3.70
2010,04,08,05,59,3.80
2010,04,08,06,00,3.90
2010,04,08,06,01,3.90
2010,04,08,06,02,3.90
2010,04,08,06,03,4.00
2010,04,08,06,04,3.90
2010,04,08,06,05,3.90
2010,04,08,06,06,3.90
2010,04,08,06,07,3.90
2010,04,08,06,08,3.90
2010,04,08,06,09,3.90
2010,04,08,06,10,3.80
2010,04,08,06,11,3.80
2010,04,08,06,12,3.80
2010,04,08,06,13,3.80
2010,04,08,06,14,3.70
2010,04,08,06,15,3.70
2010,04,08,06,16,3.70
2010,04,08,06,17,3.70
2010,04,08,06,18,3.70
2010,04,08,06,19,3.70
2010,04,08,06,20,3.70
2010,04,08,06,21,3.70
2010,04,08,06,22,3.80
2010,04,08,06,23,3.80
2010,04,08,06,24,3.80
2010,04,08,06,25,3.80
2010,04,08,06,26,3.80
2010,04,08,06,27,3.80
2010,04,08,06,28,3.80
2010,04,08,06,29,3.90
2010,04,08,06,30,3.90
2010,04,08,06,31,3.90
2010,04,08,06,32,3.90
2010,04,08,06,33,4.00
2010,04,08,06,34,4.00
2010,04,08,06,35,4.00
2010,04,08,06,36,4.10
2010,04,08,06,37,4.10
2010,04,08,06,38,4.10
2010,04,08,06,39,4.10
2010,04,08,06,40,4.10
2010,04,08,06,41,4.10
2010,04,08,06,42,4.10
2010,04,08,06,43,4.10
2010,04,08,06,44,4.10
2010,04,08,06,45,4.10
2010,04,08,06,46,4.10
2010,04,08,06,47,4.10
2010,04,08,06,48,4.10
2010,04,08,06,49,4.10
2010,04,08,06,50,4.10
2010,04,08,06,51,4.10
2010,04,08,06,52,4.10
2010,04,08,06,53,4.10
2010,04,08,06,54,4.10
2010,04,08,06,55,4.10
2010,04,08,06,56,4.10
2010,04,08,06,57,4.10
2010,04,08,06,58,4.10
2010,04,08,06,59,4.10
2010,04,08,07,00,4.10
2010,04,08,07,01,4.20
2010,04,08,07,02,4.20
2010,04,08,07,03,4.20
2010,04,08,07,04,4.20
2010,04,08,07,05,4.20
2010,04,08,07,06,4.20
2010,04,08,07,07,4.20
2010,04,08,07,08,4.30
2010,04,08,07,09,4.30
2010,04,08,07,10,4.30
2010,04,08,07,11,4.30
2010,04,08,07,12,4.30
2010,04,08,07,13,4.30
2010,04,08,07,14,4.30
2010,04,08,07,15,4.30
2010,04,08,07,16,4.30
2010,04,08,07,17,4.30
2010,04,08,07,18,4.30
2010,04,08,07,19,4.30
2010,04,08,07,20,4.30
2010,04,08,07,21,4.30
2010,04,08,07,22,4.30
2010,04,08,07,23,4.30
2010,04,08,07,24,4.30
2010,04,08,07,25,4.30
2010,04,08,07,26,4.30
2010,04,08,07,27,4.30
2010,04,08,07,28,4.30
2010,04,08,07,29,4.30
2010,04,08,07,30,4.40
2010,04,08,07,31,4.40
2010,04,08,07,32,4.50
2010,04,08,07,33,4.50
2010,04,08,07,34,4.50
2010,04,08,07,35,4.60
2010,04,08,07,36,4.60
2010,04,08,07,37,4.70
2010,04,08,07,38,4.70
2010,04,08,07,39,4.80
2010,04,08,07,40,4.80
2010,04,08,07,41,4.90
2010,04,08,07,42,4.90
2010,04,08,07,43,4.90
2010,04,08,07,44,5.00
2010,04,08,07,45,5.00
2010,04,08,07,46,5.10
2010,04,08,07,47,5.10
2010,04,08,07,48,5.10
2010,04,08,07,49,5.10
2010,04,08,07,50,5.20
2010,04,08,07,51,5.20
2010,04,08,07,52,5.20
2010,04,08,07,53,5.30
2010,04,08,07,54,5.30
2010,04,08,07,55,5.30
2010,04,08,07,56,5.40
2010,04,08,07,57,5.40
2010,04,08,07,58,5.50
2010,04,08,07,59,5.50
2010,04,08,08,00,5.60
2010,04,08,08,01,5.60
2010,04,08,08,02,5.70
2010,04,08,08,03,5.80
2010,04,08,08,04,5.80
2010,04,08,08,05,5.80
2010,04,08,08,06,5.90
2010,04,08,08,07,5.90
2010,04,08,08,08,6.00
2010,04,08,08,09,6.00
2010,04,08,08,10,6.10
2010,04,08,08,11,6.10
2010,04,08,08,12,6.10
2010,04,08,08,13,6.20
2010,04,08,08,14,6.20
2010,04,08,08,15,6.20
2010,04,08,08,16,6.20
2010,04,08,08,17,6.30
2010,04,08,08,18,6.30
2010,04,08,08,19,6.30
2010,04,08,08,20,6.30
2010,04,08,08,21,6.40
2010,04,08,08,22,6.40
2010,04,08,08,23,6.40
2010,04,08,08,24,6.40
2010,04,08,08,25,6.40
2010,04,08,08,26,6.50
2010,04,08,08,27,6.50
2010,04,08,08,28,6.50
2010,04,08,08,29,6.60
2010,04,08,08,30,6.60
2010,04,08,08,31,6.60
2010,04,08,08,32,6.60
2010,04,08,08,33,6.60
2010,04,08,08,34,6.60
2010,04,08,08,35,6.70
2010,04,08,08,36,6.70
2010,04,08,08,37,6.70
2010,04,08,08,38,6.70
2010,04,08,08,39,6.70
2010,04,08,08,40,6.80
2010,04,08,08,41,6.80
2010,04,08,08,42,6.80
2010,04,08,08,43,6.80
2010,04,08,08,44,6.80
2010,04,08,08,45,6.80
2010,04,08,08,46,6.80
2010,04,08,08,47,6.80
2010,04,08,08,48,6.80
2010,04,08,08,49,6.80
2010,04,08,08,50,6.80
2010,04,08,08,51,6.80
2010,04,08,08,52,6.80
2010,04,08,08,53,6.90
2010,04,08,08,54,6.90
2010,04,08,08,55,6.90
2010,04,08,08,56,7.00
2010,04,08,08,57,7.00
2010,04,08,08,58,7.00
2010,04,08,08,59,7.00
2010,04,08,09,00,7.10
2010,04,08,09,01,7.10
2010,04,08,09,02,7.10
2010,04,08,09,03,7.10
2010,04,08,09,04,7.10
2010,04,08,09,05,7.10
2010,04,08,09,06,7.10
2010,04,08,09,07,7.10
2010,04,08,09,08,7.10
2010,04,08,09,09,7.10
2010,04,08,09,10,7.10
2010,04,08,09,11,7.10
2010,04,08,09,12,7.10
2010,04,08,09,13,7.20
2010,04,08,09,14,7.20
2010,04,08,09,15,7.20
2010,04,08,09,16,7.20
2010,04,08,09,17,7.20
2010,04,08,09,18,7.30
2010,04,08,09,19,7.20
2010,04,08,09,20,7.20
2010,04,08,09,21,7.20
2010,04,08,09,22,7.20
2010,04,08,09,23,7.20
2010,04,08,09,24,7.20
2010,04,08,09,25,7.30
2010,04,08,09,26,7.30
2010,04,08,09,27,7.30
2010,04,08,09,28,7.30
2010,04,08,09,29,7.40
2010,04,08,09,30,7.40
2010,04,08,09,31,7.40
2010,04,08,09,32,7.40
2010,04,08,09,33,7.40
2010,04,08,09,34,7.40
2010,04,08,09,35,7.40
2010,04,08,09,36,7.40
2010,04,08,09,37,7.40
2010,04,08,09,38,7.40
2010,04,08,09,39,7.40
2010,04,08,09,40,7.40
2010,04,08,09,41,7.40
2010,04,08,09,42,7.40
2010,04,08,09,43,7.50
2010,04,08,09,44,7.50
2010,04,08,09,45,7.60
2010,04,08,09,46,7.60
2010,04,08,09,47,7.60
2010,04,08,09,48,7.60
2010,04,08,09,49,7.60
2010,04,08,09,50,7.60
2010,04,08,09,51,7.60
2010,04,08,09,52,7.60
2010,04,08,09,53,7.60
2010,04,08,09,54,7.60
2010,04,08,09,55,7.60
2010,04,08,09,56,7.70
2010,04,08,09,57,7.70
2010,04,08,09,58,7.70
2010,04,08,09,59,7.70
2010,04,08,10,00,7.70
2010,04,08,10,01,7.70
2010,04,08,10,02,7.70
2010,04,08,10,03,7.70
2010,04,08,10,04,7.70
2010,04,08,10,05,7.70
2010,04,08,10,06,7.80
2010,04,08,10,07,7.80
2010,04,08,10,08,7.70
2010,04,08,10,09,7.70
2010,04,08,10,10,7.80
2010,04,08,10,11,7.80
2010,04,08,10,12,7.80
2010,04,08,10,13,7.90
2010,04,08,10,14,8.00
2010,04,08,10,15,8.00
2010,04,08,10,16,8.10
2010,04,08,10,17,8.20
2010,04,08,10,18,8.20
2010,04,08,10,19,8.20
2010,04,08,10,20,8.20
2010,04,08,10,21,8.20
2010,04,08,10,22,8.30
2010,04,08,10,23,8.30
2010,04,08,10,24,8.30
2010,04,08,10,25,8.30
2010,04,08,10,26,8.30
2010,04,08,10,27,8.30
2010,04,08,10,28,8.30
2010,04,08,10,29,8.30
2010,04,08,10,30,8.40
2010,04,08,10,31,8.40
2010,04,08,10,32,8.40
2010,04,08,10,33,8.40
2010,04,08,10,34,8.30
2010,04,08,10,35,8.30
2010,04,08,10,36,8.40
2010,04,08,10,37,8.40
2010,04,08,10,38,8.40
2010,04,08,10,39,8.40
2010,04,08,10,40,8.50
2010,04,08,10,41,8.50
2010,04,08,10,42,8.50
2010,04,08,10,43,8.50
2010,04,08,10,44,8.50
2010,04,08,10,45,8.50
2010,04,08,10,46,8.40
2010,04,08,10,47,8.40
2010,04,08,10,48,8.50
2010,04,08,10,49,8.50
2010,04,08,10,50,8.50
2010,04,08,10,51,8.40
2010,04,08,10,52,8.30
2010,04,08,10,53,8.30
2010,04,08,10,54,8.40
2010,04,08,10,55,8.50
2010,04,08,10,56,8.60
2010,04,08,10,57,8.60
2010,04,08,10,58,8.70
2010,04,08,10,59,8.70
2010,04,08,11,00,8.70
2010,04,08,11,01,8.70
2010,04,08,11,02,8.80
2010,04,08,11,03,8.80
2010,04,08,11,04,8.80
2010,04,08,11,05,8.70
2010,04,08,11,06,8.70
2010,04,08,11,07,8.70
2010,04,08,11,08,8.60
2010,04,08,11,09,8.50
2010,04,08,11,10,8.50
2010,04,08,11,11,8.50
2010,04,08,11,12,8.60
2010,04,08,11,13,8.60
2010,04,08,11,14,8.70
2010,04,08,11,15,8.70
2010,04,08,11,16,8.70
2010,04,08,11,17,8.80
2010,04,08,11,18,8.80
2010,04,08,11,19,8.80
2010,04,08,11,20,8.70
2010,04,08,11,21,8.70
2010,04,08,11,22,8.80
2010,04,08,11,23,8.80
2010,04,08,11,24,8.90
2010,04,08,11,25,9.00
2010,04,08,11,26,9.10
2010,04,08,11,27,9.20
2010,04,08,11,28,9.30
2010,04,08,11,29,9.30
2010,04,08,11,30,9.40
2010,04,08,11,31,9.60
2010,04,08,11,32,9.60
2010,04,08,11,33,9.40
2010,04,08,11,34,9.30
2010,04,08,11,35,9.30
2010,04,08,11,36,9.30
2010,04,08,11,37,9.30
2010,04,08,11,38,9.30
2010,04,08,11,39,9.30
2010,04,08,11,40,9.30
2010,04,08,11,41,9.30
2010,04,08,11,42,9.30
2010,04,08,11,43,9.30
2010,04,08,11,44,9.40
2010,04,08,11,45,9.40
2010,04,08,11,46,9.40
2010,04,08,11,47,9.40
2010,04,08,11,48,9.50
2010,04,08,11,49,9.50
2010,04,08,11,50,9.60
2010,04,08,11,51,9.60
2010,04,08,11,52,9.60
2010,04,08,11,53,9.50
2010,04,08,11,54,9.50
2010,04,08,11,55,9.40
2010,04,08,11,56,9.40
2010,04,08,11,57,9.30
2010,04,08,11,58,9.30
2010,04,08,11,59,9.20
2010,04,08,12,00,9.10
2010,04,08,12,01,9.10
2010,04,08,12,02,9.10
2010,04,08,12,03,9.20
2010,04,08,12,04,9.20
2010,04,08,12,05,9.20
2010,04,08,12,06,9.20
2010,04,08,12,07,9.20
2010,04,08,12,08,9.20
2010,04,08,12,09,9.30
2010,04,08,12,10,9.30
2010,04,08,12,11,9.20
2010,04,08,12,12,9.20
2010,04,08,12,13,9.20
2010,04,08,12,14,9.20
2010,04,08,12,15,9.30
2010,04,08,12,16,9.30
2010,04,08,12,17,9.30
2010,04,08,12,18,9.30
2010,04,08,12,19,9.30
2010,04,08,12,20,9.30
2010,04,08,12,21,9.20
2010,04,08,12,22,9.20
2010,04,08,12,23,9.20
2010,04,08,12,24,9.20
2010,04,08,12,25,9.20
2010,04,08,12,26,9.30
2010,04,08,12,27,9.30
2010,04,08,12,28,9.40
2010,04,08,12,29,9.40
2010,04,08,12,30,9.50
2010,04,08,12,31,9.40
2010,04,08,12,32,9.50
2010,04,08,12,33,9.50
2010,04,08,12,34,9.50
2010,04,08,12,35,9.50
2010,04,08,12,36,9.60
2010,04,08,12,37,9.60
2010,04,08,12,38,9.60
2010,04,08,12,39,9.60
2010,04,08,12,40,9.60
2010,04,08,12,41,9.70
2010,04,08,12,42,9.60
2010,04,08,12,43,9.70
2010,04,08,12,44,9.70
2010,04,08,12,45,9.70
2010,04,08,12,46,9.60
2010,04,08,12,47,9.60
2010,04,08,12,48,9.60
2010,04,08,12,49,9.60
2010,04,08,12,50,9.70
2010,04,08,12,51,9.70
2010,04,08,12,52,9.70
2010,04,08,12,53,9.80
2010,04,08,12,54,9.80
2010,04,08,12,55,9.90
2010,04,08,12,56,9.90
2010,04,08,12,57,9.90
2010,04,08,12,58,9.90
2010,04,08,12,59,9.90
2010,04,08,13,00,9.90
2010,04,08,13,01,10.00
2010,04,08,13,02,10.00
2010,04,08,13,03,10.00
2010,04,08,13,04,10.00
2010,04,08,13,05,10.00
2010,04,08,13,06,10.00
2010,04,08,13,07,10.00
2010,04,08,13,08,9.90
2010,04,08,13,09,9.90
2010,04,08,13,10,10.00
2010,04,08,13,11,10.00
2010,04,08,13,12,10.10
2010,04,08,13,13,10.10
2010,04,08,13,14,10.10
2010,04,08,13,15,10.10
2010,04,08,13,16,10.20
2010,04,08,13,17,10.20
2010,04,08,13,18,10.20
2010,04,08,13,19,10.10
2010,04,08,13,20,10.10
2010,04,08,13,21,10.10
2010,04,08,13,22,10.00
2010,04,08,13,23,9.90
2010,04,08,13,24,9.80
2010,04,08,13,25,9.80
2010,04,08,13,26,9.80
2010,04,08,13,27,9.80
2010,04,08,13,28,9.80
2010,04,08,13,29,9.90
2010,04,08,13,30,10.00
2010,04,08,13,31,10.10
2010,04,08,13,32,10.20
2010,04,08,13,33,10.30
2010,04,08,13,34,10.30
2010,04,08,13,35,10.40
2010,04,08,13,36,10.50
2010,04,08,13,37,10.70
2010,04,08,13,38,10.80
2010,04,08,13,39,10.80
2010,04,08,13,40,10.70
2010,04,08,13,41,10.70
2010,04,08,13,42,10.80
2010,04,08,13,43,10.70
2010,04,08,13,44,10.80
2010,04,08,13,45,10.80
2010,04,08,13,46,10.80
2010,04,08,13,47,10.80
2010,04,08,13,48,10.70
2010,04,08,13,49,10.60
2010,04,08,13,50,10.60
2010,04,08,13,51,10.50
2010,04,08,13,52,10.50
2010,04,08,13,53,10.50
2010,04,08,13,54,10.40
2010,04,08,13,55,10.40
2010,04,08,13,56,10.30
2010,04,08,13,57,10.30
2010,04,08,13,58,10.20
2010,04,08,13,59,10.30
2010,04,08,14,00,10.30
2010,04,08,14,01,10.30
2010,04,08,14,04,10.30
2010,04,08,14,05,10.40
2010,04,08,14,06,10.50
2010,04,08,14,07,10.60
2010,04,08,14,08,10.70
2010,04,08,14,09,10.70
2010,04,08,14,10,10.80
2010,04,08,14,11,10.80
2010,04,08,14,12,10.80
2010,04,08,14,13,10.90
2010,04,08,14,14,10.90
2010,04,08,14,15,11.00
2010,04,08,14,16,11.10
2010,04,08,14,17,11.20
2010,04,08,14,18,11.30
2010,04,08,14,19,11.40
2010,04,08,14,20,11.40
2010,04,08,14,21,11.40
2010,04,08,14,22,11.30
2010,04,08,14,23,11.30
2010,04,08,14,24,11.20
2010,04,08,14,25,11.10
2010,04,08,14,26,11.10
2010,04,08,14,27,11.10
2010,04,08,14,28,11.10
2010,04,08,14,29,11.10
2010,04,08,14,30,11.20
2010,04,08,14,31,11.20
2010,04,08,14,32,11.20
2010,04,08,14,33,11.20
2010,04,08,14,34,11.20
2010,04,08,14,35,11.20
2010,04,08,14,36,11.10
2010,04,08,14,37,11.10
2010,04,08,14,38,11.00
2010,04,08,14,39,11.00
2010,04,08,14,40,11.00
2010,04,08,14,41,10.90
2010,04,08,14,42,10.90
2010,04,08,14,43,10.90
2010,04,08,14,44,11.00
2010,04,08,14,45,11.00
2010,04,08,14,46,11.10
2010,04,08,14,47,11.30
2010,04,08,14,48,11.40
2010,04,08,14,49,11.40
2010,04,08,14,50,11.40
2010,04,08,14,51,11.40
2010,04,08,14,52,11.30
2010,04,08,14,53,11.30
2010,04,08,14,54,11.30
2010,04,08,14,55,11.30
2010,04,08,14,56,11.10
2010,04,08,14,57,11.10
2010,04,08,14,58,11.00
2010,04,08,14,59,11.00
2010,04,08,15,00,10.90
2010,04,08,15,01,10.90
2010,04,08,15,02,10.80
2010,04,08,15,03,10.80
2010,04,08,15,04,10.90
2010,04,08,15,05,11.00
2010,04,08,15,06,11.10
2010,04,08,15,07,11.10
2010,04,08,15,08,11.10
2010,04,08,15,09,11.10
2010,04,08,15,10,11.20
2010,04,08,15,11,11.20
2010,04,08,15,12,11.20
2010,04,08,15,13,11.20
2010,04,08,15,14,11.20
2010,04,08,15,15,11.30
2010,04,08,15,16,11.30
2010,04,08,15,17,11.30
2010,04,08,15,18,11.30
2010,04,08,15,19,11.40
2010,04,08,15,20,11.40
2010,04,08,15,21,11.30
2010,04,08,15,22,11.30
2010,04,08,15,23,11.30
2010,04,08,15,24,11.30
2010,04,08,15,25,11.30
2010,04,08,15,26,11.30
2010,04,08,15,27,11.20
2010,04,08,15,28,11.00
2010,04,08,15,29,10.90
2010,04,08,15,30,11.00
2010,04,08,15,31,11.00
2010,04,08,15,32,11.00
2010,04,08,15,33,11.10
2010,04,08,15,34,11.10
2010,04,08,15,35,11.20
2010,04,08,15,36,11.10
2010,04,08,15,37,11.00
2010,04,08,15,38,11.00
2010,04,08,15,39,11.10
2010,04,08,15,40,11.10
2010,04,08,15,41,11.00
2010,04,08,15,42,10.90
2010,04,08,15,43,10.80
2010,04,08,15,44,10.70
2010,04,08,15,45,10.70
2010,04,08,15,46,10.70
2010,04,08,15,47,10.70
2010,04,08,15,48,10.70
2010,04,08,15,49,10.70
2010,04,08,15,50,10.80
2010,04,08,15,51,10.80
2010,04,08,15,52,10.80
2010,04,08,15,53,10.80
2010,04,08,15,54,10.70
2010,04,08,15,55,10.60
2010,04,08,15,56,10.60
2010,04,08,15,57,10.60
2010,04,08,15,58,10.70
2010,04,08,15,59,10.70
2010,04,08,16,00,10.70
2010,04,08,16,01,10.70
2010,04,08,16,02,10.80
2010,04,08,16,03,10.90
2010,04,08,16,04,11.00
2010,04,08,16,05,11.10
2010,04,08,16,06,11.10
2010,04,08,16,07,11.10
2010,04,08,16,08,11.20
2010,04,08,16,09,11.10
2010,04,08,16,10,11.00
2010,04,08,16,11,10.90
2010,04,08,16,12,10.90
2010,04,08,16,13,10.80
2010,04,08,16,14,10.80
2010,04,08,16,15,10.70
2010,04,08,16,16,10.70
2010,04,08,16,17,10.60
2010,04,08,16,18,10.60
2010,04,08,16,19,10.60
2010,04,08,16,20,10.50
2010,04,08,16,21,10.50
2010,04,08,16,22,10.50
2010,04,08,16,23,10.40
2010,04,08,16,24,10.40
2010,04,08,16,25,10.50
2010,04,08,16,26,10.50
2010,04,08,16,27,10.60
2010,04,08,16,28,10.60
2010,04,08,16,29,10.50
2010,04,08,16,30,10.40
2010,04,08,16,31,10.40
2010,04,08,16,32,10.40
2010,04,08,16,33,10.40
2010,04,08,16,34,10.50
2010,04,08,16,35,10.50
2010,04,08,16,36,10.60
2010,04,08,16,37,10.50
2010,04,08,16,38,10.40
2010,04,08,16,39,10.30
2010,04,08,16,40,10.30
2010,04,08,16,41,10.30
2010,04,08,16,42,10.40
2010,04,08,16,43,10.50
2010,04,08,16,44,10.60
2010,04,08,16,45,10.60
2010,04,08,16,46,10.50
2010,04,08,16,47,10.40
2010,04,08,16,48,10.30
2010,04,08,16,49,10.30
2010,04,08,16,50,10.20
2010,04,08,16,51,10.10
2010,04,08,16,52,10.00
2010,04,08,16,53,9.90
2010,04,08,16,54,9.90
2010,04,08,16,55,9.90
2010,04,08,16,56,9.90
2010,04,08,16,57,9.90
2010,04,08,16,58,9.90
2010,04,08,16,59,9.80
2010,04,08,17,00,9.70
2010,04,08,17,01,9.70
2010,04,08,17,02,9.70
2010,04,08,17,03,9.70
2010,04,08,17,04,9.70
2010,04,08,17,05,9.70
2010,04,08,17,06,9.70
2010,04,08,17,07,9.70
2010,04,08,17,08,9.70
2010,04,08,17,09,9.70
2010,04,08,17,10,9.60
2010,04,08,17,11,9.60
2010,04,08,17,12,9.50
2010,04,08,17,13,9.50
2010,04,08,17,14,9.40
2010,04,08,17,15,9.40
2010,04,08,17,16,9.40
2010,04,08,17,17,9.40
2010,04,08,17,18,9.30
2010,04,08,17,19,9.20
2010,04,08,17,20,9.20
2010,04,08,17,21,9.30
2010,04,08,17,22,9.30
2010,04,08,17,23,9.20
2010,04,08,17,24,9.10
2010,04,08,17,25,9.10
2010,04,08,17,26,9.10
2010,04,08,17,27,9.10
2010,04,08,17,28,9.00
2010,04,08,17,29,9.00
2010,04,08,17,30,8.90
2010,04,08,17,31,8.80
2010,04,08,17,32,8.70
2010,04,08,17,33,8.70
2010,04,08,17,34,8.70
2010,04,08,17,35,8.60
2010,04,08,17,36,8.60
2010,04,08,17,37,8.50
2010,04,08,17,38,8.40
2010,04,08,17,39,8.40
2010,04,08,17,40,8.30
2010,04,08,17,41,8.40
2010,04,08,17,42,8.30
2010,04,08,17,43,8.30
2010,04,08,17,44,8.30
2010,04,08,17,45,8.30
2010,04,08,17,46,8.20
2010,04,08,17,47,8.30
2010,04,08,17,48,8.30
2010,04,08,17,49,8.30
2010,04,08,17,50,8.40
2010,04,08,17,51,8.40
2010,04,08,17,52,8.40
2010,04,08,17,53,8.40
2010,04,08,17,54,8.40
2010,04,08,17,55,8.40
2010,04,08,17,56,8.40
2010,04,08,17,57,8.40
2010,04,08,17,58,8.30
2010,04,08,17,59,8.30
2010,04,08,18,00,8.20
2010,04,08,18,01,8.20